This is the latest recevied weather packets stored in our database for station/object OK1FRN-6. If no packets are shown the sender has not sent any weather packets the latest 1 day(s).
| Time | Temp. | Humidity | Pressure | Rain* | Wind** | Luminosity | Snow |
|---|---|---|---|---|---|---|---|
| 1777958715 | 14.44° C | 86% | 1009.7 hPa | - | 0 m/s | - | - |
| 1777958103 | 13.89° C | 85% | 1009.8 hPa | - | 0 m/s | - | - |
| 1777957185 | 13.89° C | 84% | 1009.9 hPa | - | 0 m/s | - | - |
| 1777956879 | 13.33° C | 84% | 1009.9 hPa | - | 0 m/s | - | - |
| 1777956572 | 13.33° C | 84% | 1009.8 hPa | - | 0 m/s | - | - |
| 1777956266 | 13.33° C | 84% | 1009.8 hPa | - | 0 m/s | - | - |
| 1777955960 | 13.33° C | 84% | 1009.8 hPa | - | 0 m/s | - | - |
| 1777955654 | 12.78° C | 83% | 1009.8 hPa | - | 0 m/s | - | - |
| 1777955348 | 12.78° C | 84% | 1009.9 hPa | - | 0 m/s | - | - |
| 1777954737 | 12.22° C | 84% | 1009.9 hPa | - | 0 m/s | - | - |
| 1777954124 | 12.22° C | 81% | 1009.9 hPa | - | 0 m/s | - | - |
| 1777953818 | 12.22° C | 81% | 1010 hPa | - | 0 m/s | - | - |
| 1777953206 | 12.22° C | 80% | 1010 hPa | - | 0 m/s | - | - |
| 1777951982 | 12.22° C | 80% | 1010.2 hPa | - | 0 m/s | - | - |
| 1777951065 | 12.22° C | 80% | 1010.2 hPa | - | 0 m/s | - | - |
| 1777950759 | 12.22° C | 80% | 1010.2 hPa | - | 0 m/s | - | - |
| 1777950453 | 12.78° C | 81% | 1010.2 hPa | - | 0 m/s | - | - |
| 1777949841 | 12.78° C | 81% | 1010.3 hPa | - | 0 m/s | - | - |
| 1777949535 | 12.78° C | 79% | 1010.2 hPa | - | 0 m/s | - | - |
| 1777949229 | 12.78° C | 79% | 1010.3 hPa | - | 0 m/s | - | - |
| 1777948617 | 12.78° C | 79% | 1010.4 hPa | - | 0 m/s | - | - |
| 1777948311 | 12.78° C | 78% | 1010.3 hPa | - | 0 m/s | - | - |
| 1777948005 | 12.78° C | 78% | 1010.4 hPa | - | 0 m/s | - | - |
| 1777947699 | 12.78° C | 78% | 1010.4 hPa | - | 0 m/s | - | - |
| 1777946780 | 12.78° C | 78% | 1010.4 hPa | - | 0 m/s | - | - |
* Rain since midnight (hover to see other rain measurements)
** Current wind speed in m/s (hover to see current wind gust speed)